When you browse on this site, cookies collect data to enhance your experience and personalize the content and advertising you see.
Visit our Privacy Policy to learn more. By continuing to use the site, you agree to this use of cookies and data.
  • In Italy
  • List of Countries
  • For 7 days
  • Water Temperature
  • Satellite Maps
  • Weather Map
  • Weather Widgets
  • user-avatar
    Login

    Hourly Weather Brest

    Today, 21 April, Sunday

    Time Temperature Precipitation Wind Pressure Humidity
    00:00 +11°C° 0 mm 3 mps 754 mmHg 67%
    01:00 +10°C° 0 mm 3 mps 754 mmHg 72%
    02:00 +10°C° 0 mm 3 mps 754 mmHg 71%
    03:00 +9°C° 0.1 mm 3 mps 754 mmHg 76%
    04:00 +9°C° 0.1 mm 3 mps 753 mmHg 80%
    05:00 +9°C° 0.1 mm 3 mps 753 mmHg 85%
    06:00 +9°C° 0 mm 3 mps 753 mmHg 82%
    07:00 +10°C° 0 mm 3 mps 753 mmHg 79%
    08:00 +10°C° 0 mm 4 mps 753 mmHg 74%
    09:00 +11°C° 0.1 mm 4 mps 753 mmHg 70%
    10:00 +11°C° 0.1 mm 4 mps 753 mmHg 66%
    11:00 +10°C° 0.1 mm 5 mps 753 mmHg 62%
    12:00 +12°C° 0.1 mm 4 mps 752 mmHg 60%
    13:00 +12°C° 0.1 mm 4 mps 752 mmHg 59%
    14:00 +12°C° 0.1 mm 4 mps 752 mmHg 58%
    15:00 +12°C° 0.1 mm 4 mps 752 mmHg 60%
    16:00 +11°C° 0.1 mm 4 mps 751 mmHg 62%
    17:00 +11°C° 0.1 mm 4 mps 751 mmHg 65%
    18:00 +10°C° 0.1 mm 3 mps 751 mmHg 69%
    19:00 +9°C° 0.1 mm 2 mps 751 mmHg 74%
    20:00 +9°C° 0.1 mm 1 mps 750 mmHg 78%
    21:00 +9°C° 0.1 mm 1 mps 751 mmHg 81%
    22:00 +8°C° 0.1 mm 1 mps 751 mmHg 83%
    23:00 +7°C° 0.1 mm 0 mps 751 mmHg 86%

    Tomorrow, 22 April, Monday

    Time Temperature Precipitation Wind Pressure Humidity
    00:00 +8°C° 0.4 mm 1 mps 751 mmHg 87%
    01:00 +8°C° 0.4 mm 1 mps 752 mmHg 88%
    02:00 +7°C° 0.4 mm 2 mps 752 mmHg 88%
    03:00 +7°C° 0 mm 3 mps 752 mmHg 90%
    04:00 +5°C° 0 mm 3 mps 752 mmHg 92%
    05:00 +5°C° 0 mm 4 mps 752 mmHg 94%
    06:00 +6°C° 0 mm 5 mps 753 mmHg 89%
    07:00 +7°C° 0 mm 5 mps 754 mmHg 83%
    08:00 +9°C° 0 mm 6 mps 754 mmHg 78%
    09:00 +10°C° 0 mm 7 mps 755 mmHg 69%
    10:00 +12°C° 0 mm 7 mps 755 mmHg 61%
    11:00 +13°C° 0 mm 8 mps 755 mmHg 52%
    12:00 +15°C° 0 mm 7 mps 756 mmHg 50%
    13:00 +15°C° 0 mm 7 mps 756 mmHg 47%
    14:00 +15°C° 0 mm 7 mps 756 mmHg 45%
    15:00 +15°C° 0 mm 7 mps 756 mmHg 45%
    16:00 +15°C° 0 mm 6 mps 756 mmHg 44%
    17:00 +15°C° 0 mm 6 mps 756 mmHg 44%
    18:00 +13°C° 0 mm 5 mps 756 mmHg 47%
    19:00 +12°C° 0 mm 5 mps 756 mmHg 51%
    20:00 +10°C° 0 mm 4 mps 756 mmHg 54%
    21:00 +10°C° 0 mm 4 mps 757 mmHg 54%
    22:00 +8°C° 0 mm 4 mps 757 mmHg 55%
    23:00 +8°C° 0 mm 4 mps 757 mmHg 55%

    Day after tomorrow, 23 April, Tuesday

    Time Temperature Precipitation Wind Pressure Humidity
    00:00 +7°C° 0 mm 4 mps 757 mmHg 56%
    01:00 +7°C° 0 mm 4 mps 757 mmHg 57%
    02:00 +6°C° 0 mm 5 mps 757 mmHg 59%
    03:00 +6°C° 0 mm 5 mps 757 mmHg 60%
    04:00 +6°C° 0 mm 5 mps 757 mmHg 62%
    05:00 +6°C° 0 mm 5 mps 757 mmHg 64%
    06:00 +7°C° 0 mm 6 mps 757 mmHg 60%
    07:00 +8°C° 0 mm 7 mps 758 mmHg 57%
    08:00 +9°C° 0 mm 7 mps 758 mmHg 53%
    09:00 +11°C° 0 mm 8 mps 758 mmHg 49%
    10:00 +12°C° 0 mm 8 mps 757 mmHg 45%
    11:00 +15°C° 0 mm 9 mps 757 mmHg 41%
    12:00 +15°C° 0 mm 9 mps 757 mmHg 40%
    13:00 +16°C° 0 mm 9 mps 757 mmHg 39%
    14:00 +16°C° 0 mm 9 mps 756 mmHg 39%
    15:00 +16°C° 0 mm 9 mps 756 mmHg 40%
    16:00 +16°C° 0 mm 9 mps 756 mmHg 42%
    17:00 +16°C° 0 mm 9 mps 755 mmHg 43%
    18:00 +15°C° 0 mm 8 mps 755 mmHg 46%
    19:00 +12°C° 0 mm 7 mps 755 mmHg 50%
    20:00 +11°C° 0 mm 6 mps 755 mmHg 53%
    21:00 +11°C° 0 mm 6 mps 755 mmHg 53%
    22:00 +10°C° 0 mm 6 mps 755 mmHg 54%
    23:00 +10°C° 0 mm 7 mps 755 mmHg 54%

    24 April, Wednesday

    Time Temperature Precipitation Wind Pressure Humidity
    00:00 +10°C° 0 mm 7 mps 755 mmHg 56%
    01:00 +9°C° 0 mm 7 mps 755 mmHg 58%
    02:00 +9°C° 0 mm 7 mps 754 mmHg 60%
    03:00 +9°C° 0 mm 7 mps 754 mmHg 60%
    04:00 +9°C° 0 mm 7 mps 754 mmHg 61%
    05:00 +8°C° 0 mm 7 mps 754 mmHg 61%
    06:00 +9°C° 0 mm 8 mps 754 mmHg 60%
    07:00 +8°C° 0 mm 9 mps 754 mmHg 59%
    08:00 +10°C° 0 mm 9 mps 754 mmHg 57%
    09:00 +11°C° 0 mm 9 mps 754 mmHg 56%
    10:00 +11°C° 0 mm 9 mps 754 mmHg 55%
    11:00 +12°C° 0 mm 9 mps 754 mmHg 54%
    12:00 +13°C° 0 mm 9 mps 754 mmHg 52%
    13:00 +15°C° 0 mm 9 mps 754 mmHg 50%
    14:00 +16°C° 0 mm 8 mps 754 mmHg 48%
    15:00 +16°C° 0 mm 8 mps 753 mmHg 50%
    16:00 +17°C° 0 mm 7 mps 753 mmHg 52%
    17:00 +17°C° 0 mm 7 mps 753 mmHg 53%
    18:00 +16°C° 0 mm 7 mps 753 mmHg 57%
    19:00 +15°C° 0 mm 6 mps 753 mmHg 60%
    20:00 +14°C° 0 mm 6 mps 753 mmHg 64%
    21:00 +14°C° 0 mm 6 mps 753 mmHg 64%
    22:00 +13°C° 0 mm 6 mps 754 mmHg 65%
    23:00 +13°C° 0 mm 6 mps 754 mmHg 66%

    25 April, Thursday

    Time Temperature Precipitation Wind Pressure Humidity
    00:00 +11°C° 0 mm 6 mps 754 mmHg 68%
    01:00 +12°C° 0 mm 5 mps 754 mmHg 69%
    02:00 +10°C° 0 mm 5 mps 753 mmHg 71%
    03:00 +10°C° 0 mm 5 mps 753 mmHg 72%
    04:00 +10°C° 0 mm 5 mps 753 mmHg 74%
    05:00 +9°C° 0 mm 5 mps 753 mmHg 75%
    06:00 +10°C° 0 mm 6 mps 753 mmHg 73%
    07:00 +11°C° 0 mm 6 mps 753 mmHg 71%
    08:00 +13°C° 0 mm 6 mps 753 mmHg 69%
    09:00 +14°C° 0 mm 6 mps 753 mmHg 66%
    10:00 +15°C° 0 mm 6 mps 753 mmHg 63%
    11:00 +16°C° 0 mm 6 mps 753 mmHg 60%
    12:00 +18°C° 0 mm 7 mps 753 mmHg 57%
    13:00 +20°C° 0 mm 7 mps 753 mmHg 53%
    14:00 +21°C° 0 mm 7 mps 752 mmHg 50%
    15:00 +21°C° 0 mm 7 mps 752 mmHg 51%
    16:00 +21°C° 0 mm 7 mps 751 mmHg 52%
    17:00 +21°C° 0 mm 7 mps 751 mmHg 53%
    18:00 +20°C° 0 mm 6 mps 751 mmHg 57%
    19:00 +17°C° 0 mm 6 mps 751 mmHg 62%
    20:00 +16°C° 0 mm 5 mps 751 mmHg 67%
    21:00 +15°C° 0.1 mm 5 mps 751 mmHg 70%
    22:00 +14°C° 0.1 mm 5 mps 750 mmHg 72%
    23:00 +14°C° 0.1 mm 5 mps 750 mmHg 75%

    26 April, Friday

    Time Temperature Precipitation Wind Pressure Humidity
    00:00 +13°C° 0.5 mm 5 mps 750 mmHg 79%
    01:00 +12°C° 0.5 mm 5 mps 750 mmHg 83%
    02:00 +12°C° 0.5 mm 4 mps 749 mmHg 86%
    03:00 +12°C° 0.3 mm 4 mps 749 mmHg 87%
    04:00 +11°C° 0.3 mm 4 mps 749 mmHg 88%
    05:00 +11°C° 0.3 mm 4 mps 748 mmHg 90%
    06:00 +12°C° 0 mm 4 mps 748 mmHg 86%
    07:00 +13°C° 0 mm 5 mps 748 mmHg 82%
    08:00 +14°C° 0 mm 5 mps 748 mmHg 77%
    09:00 +17°C° 0 mm 5 mps 748 mmHg 71%
    10:00 +20°C° 0 mm 5 mps 748 mmHg 65%
    11:00 +22°C° 0 mm 5 mps 748 mmHg 59%
    12:00 +24°C° 0 mm 6 mps 747 mmHg 55%
    13:00 +26°C° 0 mm 6 mps 747 mmHg 51%
    14:00 +27°C° 0 mm 6 mps 747 mmHg 46%
    15:00 +27°C° 0 mm 6 mps 746 mmHg 48%
    16:00 +27°C° 0 mm 5 mps 746 mmHg 49%
    17:00 +26°C° 0 mm 5 mps 746 mmHg 51%
    18:00 +23°C° 0.1 mm 5 mps 745 mmHg 57%
    19:00 +22°C° 0.1 mm 5 mps 745 mmHg 63%
    20:00 +20°C° 0.1 mm 5 mps 745 mmHg 69%
    21:00 +19°C° 0.9 mm 5 mps 745 mmHg 74%
    22:00 +18°C° 0.9 mm 4 mps 745 mmHg 79%
    23:00 +17°C° 0.9 mm 4 mps 746 mmHg 84%
    Show more